"2016-03-13 00:00:00",1452891,4.515,23.78,5.062,0.96,17.74,105.8187,14.17,15.15,24.87,0,110.5,13.13,14.97,345.8
"2016-03-13 00:00:30",1452892,3.82,19.44,2.134,0.392,16.92,105.8187,14.17,15.14,24.86,0,110.5,13.18,14.97,341.4
"2016-03-13 00:01:00",1452893,2.745,14.94,3.251,0.515,16.9,105.8178,14.17,15.13,24.86,0,110.5,13.18,14.97,336.9
"2016-03-13 00:01:30",1452894,2.986,16.49,3.328,0.532,16.94,105.8167,14.16,15.13,24.93,0,110.5,13.18,14.96,338.5
"2016-03-13 00:02:00",1452895,2.391,9.46,4.113,0.368,17.03,105.8128,14.15,15.14,24.93,0,110.5,13.18,14.95,331.5
"2016-03-13 00:02:30",1452896,2.924,3.97,3.018,0.36,17.15,105.8102,14.15,15.13,24.98,0,110.5,13.18,14.95,326.0
"2016-03-13 00:03:00",1452897,2.781,4.696,2.249,0.284,17.26,105.8094,14.14,15.13,24.89,0,110.5,13.18,14.95,326.7
"2016-03-13 00:03:30",1452898,2.7,7.612,4.449,0.356,17.33,105.8037,14.13,15.13,24.88,0,110.5,13.18,14.93,329.6
"2016-03-13 00:04:00",1452899,3.228,4.443,4.384,0.711,17.42,105.802,14.13,15.12,24.85,0,110.5,13.18,14.93,326.4
"2016-03-13 00:04:30",1452900,3.579,6.493,3.964,0.635,17.48,105.8012,14.12,15.11,24.84,0,110.5,13.18,14.93,328.5
"2016-03-13 00:05:00",1452901,5.243,354.6,5.452,1.507,17.51,105.7981,14.12,15.11,24.93,0,110.5,13.18,14.92,316.6
"2016-03-13 00:05:30",1452902,7.771,352.8,7.662,1.092,18.86,105.7936,14.1,15.22,25.3,0,110.5,13.14,14.91,314.8
"2016-03-13 00:06:00",1452903,7.976,354.8,6.542,1.585,19.26,105.7896,14.09,15.24,25.4,0,110.5,13.14,14.90,316.8
"2016-03-13 00:06:30",1452904,7.886,353.1,5.554,1.364,18.73,105.7885,14.09,15.18,25.23,0,110.5,13.13,14.89,315.1
"2016-03-13 00:07:00",1452905,8.2,352.7,6.518,1.154,18.65,105.7896,14.09,15.22,25.28,0,110.5,13.13,14.90,314.7
"2016-03-13 00:07:30",1452906,8.51,352.4,6.05,1.296,18.6,105.7893,14.09,15.22,25.29,0,110.5,13.13,14.89,314.4
"2016-03-13 00:08:00",1452907,9.08,349.8,5.664,1.416,18.13,105.7891,14.09,15.2,25.35,0,110.5,13.13,14.89,311.8
"2016-03-13 00:08:30",1452908,9.17,346.9,6.473,1.303,18.27,105.7874,14.09,15.26,25.49,0,110.5,13.13,14.89,308.9
"2016-03-13 00:09:00",1452909,7.817,334.7,9,0.403,16.37,105.7874,14.09,15.1,25.55,0,110.5,13.17,14.89,296.7
"2016-03-13 00:09:30",1452910,9.67,320.4,3.01,0.924,15.67,105.7854,14.08,15.09,26.37,0,110.5,13.17,14.88,282.4
"2016-03-13 00:10:00",1452911,9.36,331.6,5.774,0.864,16.37,105.7848,14.08,15.12,26.76,0,110.5,13.13,14.88,293.6
"2016-03-13 00:10:30",1452912,11.76,330.7,9.72,1.61,18.71,105.7848,14.08,15.24,27.1,0,110.5,13.13,14.88,292.7
"2016-03-13 00:11:00",1452913,12.63,328.8,7.288,1.703,19.01,105.7786,14.07,15.34,26.78,0,110.5,13.12,14.87,290.8
"2016-03-13 00:11:30",1452914,12.4,330.7,6.846,1.688,18.77,105.76,14.02,15.2,26.55,0,110.5,13.12,14.82,292.7
"2016-03-13 00:12:00",1452915,13.29,330.2,8.11,1.704,17.83,105.7505,13.99,15.16,26.89,0,110.5,13.13,14.79,292.2
"2016-03-13 00:12:30",1452916,11.47,332.1,6.432,1.483,17.26,105.722,13.92,15.12,26.81,0,110.5,13.13,14.72,294.1
"2016-03-13 00:13:00",1452917,11.39,323.9,2.575,0.461,15.92,105.7152,13.9,14.97,26.6,0,110.5,13.18,14.70,285.9
"2016-03-13 00:13:30",1452918,11,324.4,2.684,0.518,16.23,105.689,13.84,14.93,26.64,0,110.5,13.18,14.64,286.4
"2016-03-13 00:14:00",1452919,11.64,331.8,6.235,1.206,17.94,105.6811,13.82,15.01,26.91,0,110.5,13.13,14.62,293.8
"2016-03-13 00:14:30",1452920,12.37,333.2,7.911,1.644,19.14,105.6597,13.76,15.07,27,0,110.5,13.13,14.56,295.2
"2016-03-13 00:15:00",1452921,12.51,330.1,6.823,1.69,17.99,105.6476,13.73,14.94,26.77,0,110.5,13.13,14.53,292.1
"2016-03-13 00:15:30",1452922,13.31,331.9,7.57,1.517,17.79,105.623,13.67,14.9,26.72,0,110.5,13.13,14.47,293.9
"2016-03-13 00:16:00",1452923,13.24,331.2,6.967,1.322,17.34,105.6146,13.65,14.92,26.93,0,110.5,13.13,14.45,293.2
"2016-03-13 00:16:30",1452924,13.76,332.6,6.625,1.002,16.9,105.5909,13.59,14.76,26.86,0,110.5,13.13,14.38,294.6
"2016-03-13 00:17:00",1452925,13.37,328.9,1.328,0.347,15.99,105.5796,13.56,14.67,26.68,0,110.5,13.18,14.36,290.9
"2016-03-13 00:17:30",1452926,13.78,331.5,6.36,1.488,18.23,105.5548,13.49,14.77,26.93,0,110.5,13.13,14.29,293.5
"2016-03-13 00:18:00",1452927,14.46,335.6,8.31,1.67,19.66,105.548,13.48,14.79,27.16,0,110.5,13.13,14.27,297.6
"2016-03-13 00:18:30",1452928,14.22,333,7.638,1.367,18.58,105.5331,13.44,14.76,26.85,0,110.5,13.13,14.24,295.0
"2016-03-13 00:19:00",1452929,14,329.8,6.139,1.459,17.7,105.5142,13.39,14.62,26.86,0,110.5,13.13,14.19,291.8
"2016-03-13 00:19:30",1452930,14.32,329.8,6.443,1.296,17.29,105.5091,13.38,14.62,26.95,0,110.5,13.13,14.17,291.8
"2016-03-13 00:20:00",1452931,14.24,336.7,7.165,1.591,18.75,105.4891,13.32,14.63,27.02,0,110.5,13.13,14.12,298.7
"2016-03-13 00:20:30",1452932,12.52,325.6,2.969,0.477,16.26,105.4804,13.3,14.42,27.01,0,110.5,13.18,14.10,287.6
"2016-03-13 00:21:00",1452933,13.76,330.8,6.951,1.329,17.67,105.4784,13.3,14.49,27.13,0,110.5,13.13,14.10,292.8
"2016-03-13 00:21:30",1452934,14.52,333.7,8.37,1.542,18.81,105.4677,13.27,14.49,27.18,0,110.5,13.13,14.07,295.7
"2016-03-13 00:22:00",1452935,15.1,335.4,6.71,1.204,18.77,105.4533,13.23,14.46,27.18,0,110.5,13.13,14.03,297.4
"2016-03-13 00:22:30",1452936,14.75,335.1,7.017,1.411,17.71,105.4465,13.22,14.44,27.19,0,110.5,13.13,14.01,297.1
"2016-03-13 00:23:00",1452937,14.15,330.4,0.865,0.642,15.87,105.4465,13.22,14.3,26.99,0,110.5,13.13,14.01,292.4
"2016-03-13 00:23:30",1452938,15.69,336.8,7.008,1.44,17.65,105.4465,13.22,14.48,27.25,0,110.5,13.13,14.01,298.8
"2016-03-13 00:24:00",1452939,15.33,333.5,5.792,1.268,16.85,105.4423,13.2,14.34,27.25,0,110.5,13.13,14.00,295.5
"2016-03-13 00:24:30",1452940,15.8,337.5,6.908,1.204,17.85,105.4192,13.15,14.43,27.36,0,110.5,13.13,13.94,299.5
"2016-03-13 00:25:00",1452941,17.87,341.6,7.054,1.384,18.94,105.4127,13.13,14.43,27.59,0,110.5,13.13,13.93,303.6
"2016-03-13 00:25:30",1452942,17.05,339.2,6.967,1.525,18.13,105.4136,13.13,14.39,27.48,0,110.4,13.13,13.93,301.2
"2016-03-13 00:26:00",1452943,16.54,334.7,6.26,1.012,16.34,105.4009,13.1,14.23,27.34,0,110.5,13.13,13.90,296.7
"2016-03-13 00:26:30",1452944,16.26,334.6,6.851,1.154,17.22,105.3849,13.06,14.24,27.42,0,110.5,13.13,13.86,296.6
"2016-03-13 00:27:00",1452945,17.08,333.3,7.294,1.439,18.02,105.3807,13.05,14.33,27.78,0,110.5,13.13,13.84,295.3
"2016-03-13 00:27:30",1452946,17.66,336.4,7.16,1.438,18.25,105.3659,13.01,14.23,28.02,0,110.5,13.13,13.81,298.4
"2016-03-13 00:28:00",1452947,17.7,339.8,7.255,1.579,18.37,105.3489,12.97,14.29,27.82,0,110.5,13.13,13.76,301.8
"2016-03-13 00:28:30",1452948,17.99,340.6,7.591,1.274,18.73,105.3505,12.97,14.2,28.1,0,110.5,13.13,13.77,302.6
"2016-03-13 00:29:00",1452949,17.65,337.8,7.153,1.392,17.67,105.3356,12.93,14.12,27.56,0,110.5,13.13,13.73,299.8
"2016-03-13 00:29:30",1452950,15.78,332,0.551,0.323,15.8,105.3195,12.89,13.98,27.12,0,110.5,13.18,13.69,294.0
"2016-03-13 00:30:00",1452951,16.58,337.4,7.206,1.406,17.84,105.3201,12.89,14.12,27.33,0,110.4,13.14,13.69,299.4
"2016-03-13 00:30:30",1452952,16.87,337.9,6.812,1.444,18.55,105.3202,12.89,14.09,27.35,0,110.4,13.14,13.69,299.9
"2016-03-13 00:31:00",1452953,15.33,333.6,7.124,1.163,17.59,105.3109,12.87,14.06,27.43,0,110.5,13.14,13.67,295.6
"2016-03-13 00:31:30",1452954,16.44,338.2,7.029,1.452,19.39,105.3042,12.85,14.06,27.29,0,110.5,13.14,13.65,300.2
"2016-03-13 00:32:00",1452955,15.68,335.3,7.68,1.488,18.54,105.2992,12.84,14.1,27.3,0,110.4,13.14,13.64,297.3
"2016-03-13 00:32:30",1452956,14.72,329.2,3.75,0.681,16.02,105.2927,12.82,13.87,27.14,0,110.4,13.14,13.62,291.2
"2016-03-13 00:33:00",1452957,14.44,329.6,1.342,0.185,15.63,105.2916,12.82,13.86,27.43,0,110.4,13.19,13.62,291.6
"2016-03-13 00:33:30",1452958,15.16,333.7,7.062,1.492,17.59,105.2931,12.82,13.97,27.43,0,110.4,13.14,13.62,295.7
"2016-03-13 00:34:00",1452959,15.6,335.4,7.059,1.475,18.01,105.294,12.83,14,27.75,0,110.4,13.14,13.62,297.4
"2016-03-13 00:34:30",1452960,15.67,329.6,6.339,1.389,17.62,105.2952,12.83,13.99,27.9,0,110.4,13.14,13.62,291.6
"2016-03-13 00:35:00",1452961,15.98,329.7,7.87,1.408,18.14,105.2946,12.83,14,28.6,0,110.4,13.14,13.62,291.7
"2016-03-13 00:35:30",1452962,15.4,327.2,7.635,1.406,17.76,105.2961,12.83,14.04,29.31,0,110.4,13.14,13.63,289.2
"2016-03-13 00:36:00",1452963,14.06,319.4,4.046,0.763,15.23,105.2899,12.81,13.86,29.53,0,110.4,13.14,13.61,281.4
"2016-03-13 00:36:30",1452964,15.31,327,8.61,1.532,17.69,105.2721,12.77,13.98,29.83,0,110.4,13.14,13.57,289.0
"2016-03-13 00:37:00",1452965,15.53,327.7,7.137,1.687,17.59,105.2637,12.75,14.02,29.57,0,110.4,13.14,13.54,289.7
"2016-03-13 00:37:30",1452966,15.03,326.8,6.445,1.322,17.38,105.257,12.73,13.93,29.22,0,110.4,13.14,13.53,288.8
"2016-03-13 00:38:00",1452967,16.5,333.5,6.631,1.144,18.26,105.2365,12.68,13.94,30.09,0,110.4,13.14,13.47,295.5
"2016-03-13 00:38:30",1452968,16.12,331,6.499,1.196,16.63,105.235,12.67,13.85,30.29,0,110.4,13.14,13.47,293.0
"2016-03-13 00:39:00",1452969,16.86,333,7.01,1.39,17.34,105.205,12.6,13.79,30.2,0,110.4,13.14,13.39,295.0
"2016-03-13 00:39:30",1452970,16.49,331.6,7.145,1.295,16.96,105.2005,12.59,13.76,29.84,0,110.4,13.14,13.38,293.6
"2016-03-13 00:40:00",1452971,17.5,336.3,7.917,1.529,17.7,105.1797,12.53,13.88,29.83,0,110.4,13.14,13.33,298.3
"2016-03-13 00:40:30",1452972,17.37,338.3,7.173,1.367,17.99,105.1682,12.5,13.74,30.32,0,110.4,13.14,13.30,300.3
"2016-03-13 00:41:00",1452973,17.23,339.8,7.07,1.345,17.88,105.1597,12.48,13.72,30.19,0,110.4,13.14,13.28,301.8
"2016-03-13 00:41:30",1452974,17.65,339,7.947,1.633,17.18,105.1426,12.44,13.71,30.38,0,110.3,13.14,13.23,301.0
"2016-03-13 00:42:00",1452975,16.55,334.1,6.203,1.574,15.92,105.1374,12.42,13.55,30.44,0,110.4,13.14,13.22,296.1
"2016-03-13 00:42:30",1452976,17.02,341.1,6.658,1.327,17.61,105.1145,12.37,13.63,30.58,0,110.4,13.14,13.16,303.1
"2016-03-13 00:43:00",1452977,16.47,340.1,8.52,1.47,17.28,105.1061,12.34,13.54,30.38,0,110.4,13.13,13.14,302.1
"2016-03-13 00:43:30",1452978,16.81,337.3,6.585,1.545,17.82,105.0959,12.32,13.61,30.68,0,110.4,13.14,13.11,299.3
"2016-03-13 00:44:00",1452979,16.73,336.5,7.319,1.683,17.67,105.0791,12.27,13.54,31.23,0,110.4,13.14,13.07,298.5
"2016-03-13 00:44:30",1452980,16.55,335.4,6.937,1.23,16.86,105.0735,12.26,13.43,31.13,0,110.4,13.14,13.06,297.4
"2016-03-13 00:45:00",1452981,15.96,332.6,5.703,1.014,15.76,105.0518,12.2,13.47,31.46,0,110.4,13.14,13.00,294.6
"2016-03-13 00:45:30",1452982,16.2,337.3,7.748,1.52,17.3,105.0414,12.18,13.39,31.39,0,110.4,13.14,12.97,299.3
"2016-03-13 00:46:00",1452983,16.79,331.2,7.321,1.585,16.54,105.0358,12.16,13.41,31.36,0,110.4,13.14,12.96,293.2
"2016-03-13 00:46:30",1452984,16.85,337.9,7.183,1.948,18,105.0155,12.11,13.37,31.3,0,110.4,13.14,12.91,299.9
"2016-03-13 00:47:00",1452985,17.83,340.5,7.738,1.531,17.34,105.0085,12.09,13.36,31.37,0,110.4,13.14,12.89,302.5
"2016-03-13 00:47:30",1452986,19.2,340.3,8.64,1.422,17.43,104.998,12.07,13.25,30.85,0,110.4,13.14,12.86,302.3
"2016-03-13 00:48:00",1452987,17.54,336.9,6.745,1.428,16.78,104.9848,12.03,13.29,30.92,0,110.4,13.14,12.83,298.9
"2016-03-13 00:48:30",1452988,17.44,335.7,6.528,1.186,16.64,104.9746,12.01,13.18,31.13,0,110.4,13.15,12.80,297.7
"2016-03-13 00:49:00",1452989,17.45,341.8,8.08,1.642,18.29,104.9746,12.01,13.24,31.16,0,110.4,13.15,12.80,303.8
"2016-03-13 00:49:30",1452990,16.82,334.4,7.084,1.325,17.18,104.9743,12.01,13.24,31.45,0,110.4,13.15,12.80,296.4
"2016-03-13 00:50:00",1452991,17.35,336.4,7.93,1.607,17.1,104.965,11.98,13.15,31.04,0,110.4,13.15,12.78,298.4
"2016-03-13 00:50:30",1452992,17.16,336.2,7.473,1.399,17.22,104.9484,11.94,13.19,31.1,0,110.3,13.15,12.73,298.2
"2016-03-13 00:51:00",1452993,16.59,334,6.588,1.092,16.48,104.945,11.93,13.02,30.67,0,110.4,13.15,12.73,296.0
"2016-03-13 00:51:30",1452994,17.2,337.3,6.57,1.407,17.89,104.9425,11.93,13.19,30.82,0,110.4,13.15,12.72,299.3
"2016-03-13 00:52:00",1452995,16.3,334.9,7.003,1.267,17.68,104.9413,11.92,13.15,31,0,110.4,13.15,12.72,296.9
"2016-03-13 00:52:30",1452996,16.76,335.2,6.986,1.441,18.08,104.9408,11.92,13.16,31,0,110.4,13.15,12.71,297.2
"2016-03-13 00:53:00",1452997,17.18,335.2,7.007,1.198,16.81,104.9408,11.92,13.08,30.89,0,110.4,13.15,12.71,297.2
"2016-03-13 00:53:30",1452998,17.33,335.8,8.02,1.327,17.44,104.9408,11.92,13.11,31.23,0,110.4,13.15,12.71,297.8
"2016-03-13 00:54:00",1452999,17.42,333,6.396,1.44,16.4,104.9408,11.92,13.03,31.12,0,110.3,13.15,12.71,295.0
"2016-03-13 00:54:30",1453000,17.21,336.4,7.095,1.541,17.76,104.9405,11.92,13.12,31.33,0,110.4,13.15,12.71,298.4
"2016-03-13 00:55:00",1453001,17.07,335.6,7.242,1.482,17.57,104.9354,11.91,13.06,31.85,0,110.4,13.15,12.70,297.6
"2016-03-13 00:55:30",1453002,16.72,333.8,7.242,1.667,17.26,104.927,11.89,13.06,31.98,0,110.4,13.15,12.68,295.8
"2016-03-13 00:56:00",1453003,15.88,331.1,6.16,1.254,16.34,104.912,11.85,13.01,31.79,0,110.4,13.15,12.64,293.1
"2016-03-13 00:56:30",1453004,16.03,332.5,5.671,1.217,15.92,104.9069,11.83,12.96,32.19,0,110.4,13.15,12.63,294.5
"2016-03-13 00:57:00",1453005,16.49,332.8,7.533,1.558,16.22,104.9064,11.83,13.04,32.33,0,110.4,13.15,12.63,294.8
"2016-03-13 00:57:30",1453006,15.98,331.2,7.953,1.4,17.03,104.8951,11.8,13.01,32.51,0,110.4,13.15,12.60,293.2
"2016-03-13 00:58:00",1453007,14.3,333,6.953,1.645,16.57,104.8821,11.77,13.03,33.08,0,110.4,13.14,12.56,295.0
"2016-03-13 00:58:30",1453008,16.05,335.6,8.12,1.519,17.78,104.8734,11.75,12.96,32.77,0,110.4,13.14,12.54,297.6
"2016-03-13 00:59:00",1453009,15.56,336.7,7.763,1.582,16.81,104.861,11.72,12.97,32.18,0,110.4,13.14,12.51,298.7
"2016-03-13 00:59:30",1453010,14.95,336.1,5.708,1.36,15.61,104.8507,11.69,12.77,31.53,0,110.4,13.14,12.48,298.1
"2016-03-13 01:00:00",1453011,15.04,339.1,6.242,1.343,16.13,104.8425,11.67,12.82,31.52,0,110.4,13.14,12.46,301.1
"2016-03-13 01:00:30",1453012,15.8,344.5,8.17,1.618,18.3,104.8452,11.68,12.92,32.24,0,110.4,13.14,12.47,306.5
"2016-03-13 01:01:00",1453013,15.48,338.3,7.306,1.524,16.81,104.842,11.67,12.81,31.78,0,110.4,13.14,12.46,300.3
"2016-03-13 01:01:30",1453014,16.26,342.6,7.149,1.411,17.64,104.8365,11.65,12.87,31.34,0,110.4,13.14,12.45,304.6
"2016-03-13 01:02:00",1453015,15.97,346.3,8.06,1.476,17.77,104.8351,11.65,12.86,30.66,0,110.4,13.14,12.44,308.3
"2016-03-13 01:02:30",1453016,15.37,342.3,3.672,0.787,15.23,104.8382,11.66,12.67,30.93,0,110.4,13.14,12.45,304.3
"2016-03-13 01:03:00",1453017,15.3,348.8,7.404,1.207,17.06,104.8437,11.67,12.76,30.19,0,110.4,13.15,12.47,310.8
"2016-03-13 01:03:30",1453018,15,350.6,7.634,1.45,17.9,104.8484,11.68,12.85,29.79,0,110.4,13.15,12.48,312.6
"2016-03-13 01:04:00",1453019,14.93,353.7,7.061,1.454,17.98,104.8496,11.69,12.77,29.57,0,110.4,13.15,12.48,315.7
"2016-03-13 01:04:30",1453020,14.41,0.995,7.069,1.149,19.72,104.8689,11.74,12.88,29.18,0,110.4,13.15,12.53,323.0
"2016-03-13 01:05:00",1453021,12.37,352,5.43,1.457,17.23,104.8855,11.78,12.84,29.01,0,110.4,13.15,12.57,314.0
"2016-03-13 01:05:30",1453022,11.72,342.9,5.926,1.589,16.41,104.9027,11.82,12.81,29.78,0,110.4,13.15,12.62,304.9
"2016-03-13 01:06:00",1453023,10.98,338.6,2.164,0.312,15.05,104.9159,11.86,12.75,29.44,0,110.4,13.2,12.65,300.6
"2016-03-13 01:06:30",1453024,12.26,338.8,6.061,1.37,15.87,104.9193,11.87,12.85,29.76,0,110.4,13.15,12.66,300.8
"2016-03-13 01:07:00",1453025,14.4,347.4,5.966,1.297,19.38,104.9395,11.92,13.07,30.2,0,110.4,13.15,12.71,309.4
"2016-03-13 01:07:30",1453026,14.11,343.6,7.049,1.488,19.08,104.9529,11.95,13.06,30.32,0,110.4,13.15,12.75,305.6
"2016-03-13 01:08:00",1453027,14.64,342.1,6.966,1.479,18.54,104.9556,11.96,13.11,30.85,0,110.4,13.15,12.75,304.1
"2016-03-13 01:08:30",1453028,13.86,336.6,6.835,1.034,16.48,104.9572,11.96,13.03,30.48,0,110.4,13.15,12.76,298.6
"2016-03-13 01:09:00",1453029,13.08,335.8,2.126,0.282,14.83,104.9661,11.99,12.91,30.27,0,110.4,13.2,12.78,297.8
"2016-03-13 01:09:30",1453030,13.04,331.8,2.332,0.375,14.66,104.9675,11.99,12.94,30.69,0,110.4,13.2,12.78,293.8
"2016-03-13 01:10:00",1453031,14.16,333.9,7.373,1.441,17.56,104.9715,12,13.13,31.13,0,110.4,13.15,12.79,295.9
"2016-03-13 01:10:30",1453032,14.77,343,7.695,1.89,18.96,104.9708,12,13.17,30.51,0,110.4,13.15,12.79,305.0
"2016-03-13 01:11:00",1453033,13.32,344.3,9.25,1.579,18.66,104.967,11.99,13.18,29.61,0,110.4,13.15,12.78,306.3
"2016-03-13 01:11:30",1453034,11,334.8,7.904,1.698,16.84,104.9688,11.99,13.15,31.16,0,110.4,13.15,12.79,296.8
"2016-03-13 01:12:00",1453035,12.61,335.2,5.946,1.639,15.85,104.9683,11.99,13,30.89,0,110.4,13.15,12.79,297.2
"2016-03-13 01:12:30",1453036,13.44,332.9,4.561,0.648,15.11,104.9658,11.98,12.96,30.04,0,110.4,13.2,12.78,294.9
"2016-03-13 01:13:00",1453037,13.73,335.4,2.324,0.477,15.63,104.9653,11.98,13.01,29.03,0,110.4,13.2,12.78,297.4
"2016-03-13 01:13:30",1453038,14.5,339.5,6.87,1.667,18.32,104.9677,11.99,13.11,29.09,0,110.4,13.16,12.78,301.5
"2016-03-13 01:14:00",1453039,13.69,346.1,10.25,1.557,19.4,104.9691,11.99,13.16,28.99,0,110.5,13.16,12.79,308.1
"2016-03-13 01:14:30",1453040,14.31,348.7,8.39,1.664,19.14,104.971,12,13.22,29.21,0,110.4,13.15,12.79,310.7
"2016-03-13 01:15:00",1453041,13.13,342.9,8.93,2.027,18.34,104.979,12.02,13.15,28.65,0,110.4,13.15,12.81,304.9
"2016-03-13 01:15:30",1453042,13.65,329.3,1.836,0.638,14.75,104.992,12.05,12.96,29.51,0,110.4,13.2,12.85,291.3
"2016-03-13 01:16:00",1453043,13.69,332.8,2.132,0.618,15.17,104.997,12.06,12.97,29.12,0,110.4,13.19,12.86,294.8
"2016-03-13 01:16:30",1453044,15.35,338.4,5.281,1.183,16.56,105.0019,12.08,13.11,29.72,0,110.4,13.15,12.87,300.4
"2016-03-13 01:17:00",1453045,15.48,348.1,11.83,1.344,18.56,105.003,12.08,13.21,29.66,0,110.4,13.15,12.87,310.1
"2016-03-13 01:17:30",1453046,15.86,350.8,7.819,1.35,18.94,105.0013,12.08,13.25,29.14,0,110.4,13.15,12.87,312.8
"2016-03-13 01:18:00",1453047,15.59,346.8,7.681,1.318,19.48,105.0021,12.08,13.28,29.77,0,110.4,13.15,12.87,308.8
"2016-03-13 01:18:30",1453048,13.78,342.8,5.225,1.129,16.17,105.0085,12.09,13.11,28.72,0,110.4,13.15,12.89,304.8
"2016-03-13 01:19:00",1453049,13.12,337.9,2.443,1.766,15.2,105.0229,12.13,13.05,28.29,0,110.4,13.19,12.93,299.9
"2016-03-13 01:19:30",1453050,14.06,336.9,3.217,1.309,15.16,105.0316,12.15,13.06,28.93,0,110.4,13.19,12.95,298.9
"2016-03-13 01:20:00",1453051,16.56,352.1,8.13,2.009,18.21,105.039,12.17,13.23,29.23,0,110.4,13.15,12.97,314.1
"2016-03-13 01:20:30",1453052,16.26,356.9,9.75,2.485,19.08,105.0381,12.17,13.37,29.7,0,110.4,13.15,12.96,318.9
"2016-03-13 01:21:00",1453053,13.51,358.6,6.574,2.049,18.65,105.0378,12.17,13.34,29.42,0,110.4,13.15,12.96,320.6
"2016-03-13 01:21:30",1453054,16.71,355.8,8,2.365,18.17,105.0387,12.17,13.37,30.05,0,110.4,13.15,12.97,317.8
"2016-03-13 01:22:00",1453055,16.47,344.8,7.536,1.395,15.7,105.0407,12.18,13.18,29.89,0,110.4,13.16,12.97,306.8
"2016-03-13 01:22:30",1453056,15.67,337.9,2.14,0.411,14.63,105.0428,12.18,13.11,29.99,0,110.4,13.2,12.98,299.9
"2016-03-13 01:23:00",1453057,16.33,343,7.841,1.632,16.08,105.0431,12.18,13.24,30.2,0,110.4,13.16,12.98,305.0
"2016-03-13 01:23:30",1453058,16.45,347,8.72,1.541,18.46,105.0358,12.16,13.32,31.08,0,110.5,13.16,12.96,309.0
"2016-03-13 01:24:00",1453059,17.52,349.1,8.81,1.56,18.58,105.0199,12.12,13.33,30.66,0,110.4,13.16,12.92,311.1
"2016-03-13 01:24:30",1453060,17.67,349.2,8.19,1.51,18.15,105.0072,12.09,13.36,31.06,0,110.4,13.16,12.89,311.2
"2016-03-13 01:25:00",1453061,17.55,347.7,9.24,1.928,17.23,105.0056,12.09,13.28,30.63,0,110.4,13.15,12.88,309.7
"2016-03-13 01:25:30",1453062,14.86,337.3,5.665,1.297,13.88,104.9802,12.02,13.05,31.44,0,110.4,13.16,12.82,299.3
"2016-03-13 01:26:00",1453063,18.06,349.3,8.45,2.007,16.65,104.9754,12.01,13.18,31.08,0,110.4,13.15,12.80,311.3
"2016-03-13 01:26:30",1453064,17.35,351,7.665,1.776,16.98,104.9574,11.96,13.14,30.86,0,110.4,13.16,12.76,313.0
"2016-03-13 01:27:00",1453065,18.49,350.8,7.336,1.755,18.44,104.9416,11.92,13.19,31.31,0,110.4,13.16,12.72,312.8
"2016-03-13 01:27:30",1453066,18.57,352.3,7.505,1.757,17.8,104.9354,11.91,13.16,31.57,0,110.4,13.16,12.70,314.3
"2016-03-13 01:28:00",1453067,19.97,352.2,7.132,1.538,17.84,104.9151,11.86,13.14,31,0,110.4,13.16,12.65,314.2
"2016-03-13 01:28:30",1453068,19.57,355.9,7,1.427,18.15,104.908,11.84,13.11,30.93,0,110.4,13.16,12.63,317.9
"2016-03-13 01:29:00",1453069,18.16,353.7,7.411,1.382,17.23,104.8956,11.81,13.04,30.81,0,110.4,13.16,12.60,315.7
"2016-03-13 01:29:30",1453070,17.32,347.8,6.891,1.487,15.96,104.8753,11.75,12.91,30.7,0,110.4,13.16,12.55,309.8
"2016-03-13 01:30:00",1453071,17.4,343.3,3.506,0.863,14.82,104.8747,11.75,12.84,31.41,0,110.4,13.2,12.54,305.3
"2016-03-13 01:30:30",1453072,19.36,353.2,7.136,1.463,17.67,104.868,11.73,12.95,31.23,0,110.4,13.16,12.53,315.2
"2016-03-13 01:31:00",1453073,19.94,351.7,6.951,1.421,17.97,104.8522,11.69,13,31.49,0,110.4,13.16,12.49,313.7
"2016-03-13 01:31:30",1453074,19.55,351.9,7.476,1.525,17.87,104.8409,11.67,12.95,31.39,0,110.4,13.15,12.46,313.9
"2016-03-13 01:32:00",1453075,19.09,353.6,6.975,1.408,17.71,104.8409,11.67,12.93,31.31,0,110.3,13.15,12.46,315.6
"2016-03-13 01:32:30",1453076,18.82,352.3,7.294,1.471,16.95,104.8316,11.64,12.88,31.68,0,110.3,13.15,12.43,314.3
"2016-03-13 01:33:00",1453077,18.54,344.4,5.719,1.152,15.04,104.8124,11.59,12.64,31.53,0,110.4,13.15,12.38,306.4
"2016-03-13 01:33:30",1453078,19.25,349.4,6.83,1.247,16.61,104.807,11.58,12.81,32.03,0,110.4,13.15,12.37,311.4
"2016-03-13 01:34:00",1453079,18.65,349.1,7.109,1.502,17.48,104.8037,11.57,12.76,31.99,0,110.4,13.15,12.36,311.1
"2016-03-13 01:34:30",1453080,18.13,348.5,7.851,1.606,16.58,104.7859,11.52,12.76,32.49,0,110.3,13.15,12.32,310.5
"2016-03-13 01:35:00",1453081,19.84,353,7.721,1.703,17.58,104.7732,11.49,12.77,32.66,0,110.4,13.15,12.28,315.0
"2016-03-13 01:35:30",1453082,20.49,356.7,7.134,1.595,17.72,104.7678,11.48,12.76,32.43,0,110.4,13.15,12.27,318.7
"2016-03-13 01:36:00",1453083,18.95,356.4,7.568,1.583,17.35,104.7444,11.42,12.71,32.83,0,110.4,13.15,12.21,318.4
"2016-03-13 01:36:30",1453084,16.55,357.5,6.797,2.082,17.11,104.7393,11.41,12.64,32.54,0,110.4,13.15,12.20,319.5
"2016-03-13 01:37:00",1453085,15.11,349,3.986,0.907,14.24,104.7272,11.37,12.5,33.06,0,110.4,13.15,12.17,311.0
"2016-03-13 01:37:30",1453086,14.37,351.9,6.24,1.704,14.9,104.7058,11.32,12.48,33.48,0,110.4,13.16,12.11,313.9
"2016-03-13 01:38:00",1453087,16.16,0.793,8.6,3.81,17.6,104.7041,11.32,12.58,33.12,0,110.4,13.16,12.11,322.8
"2016-03-13 01:38:30",1453088,11.03,18.61,6.916,2.436,18.46,104.6874,11.27,12.58,32.86,0,110.4,13.16,12.06,340.6
"2016-03-13 01:39:00",1453089,13.51,27.36,8.4,1.731,18.53,104.673,11.24,12.56,33.45,0,110.3,13.16,12.03,349.4
"2016-03-13 01:39:30",1453090,9.67,25.31,9.1,2.051,16.08,104.6716,11.23,12.38,33.94,0,110.3,13.17,12.02,347.3
"2016-03-13 01:40:00",1453091,5.239,1.02,24.66,1.527,14.26,104.6711,11.23,12.31,34.02,0,110.4,13.21,12.02,323.0
"2016-03-13 01:40:30",1453092,7.5,357.2,5.59,2.052,14.37,104.662,11.21,12.23,33.4,0,110.4,13.21,12.00,319.2
"2016-03-13 01:41:00",1453093,12.48,0.999,11.97,1.532,16.94,104.651,11.18,12.4,33.43,0,110.3,13.17,11.97,323.0
"2016-03-13 01:41:30",1453094,11.84,21.7,9.27,3.299,18.17,104.6378,11.15,12.46,33.56,0,110.4,13.17,11.94,343.7
"2016-03-13 01:42:00",1453095,11.21,14.27,8.88,2.574,18.07,104.6384,11.15,12.45,33.69,0,110.3,13.17,11.94,336.3
"2016-03-13 01:42:30",1453096,9.13,15.77,10.67,2.967,16.91,104.6333,11.13,12.38,33.53,0,110.3,13.17,11.92,337.8
"2016-03-13 01:43:00",1453097,7.502,4.079,8.54,1.837,15.1,104.6274,11.12,12.22,33.31,0,110.3,13.17,11.91,326.1
"2016-03-13 01:43:30",1453098,6.336,4.92,5.749,1.896,13.99,104.6223,11.11,12.13,32.97,0,110.3,13.21,11.90,326.9
"2016-03-13 01:44:00",1453099,8.63,7.78,8.6,1.974,14.75,104.6172,11.09,12.12,33.28,0,110.3,13.17,11.88,329.8
"2016-03-13 01:44:30",1453100,7.641,6.914,8.55,1.642,17.05,104.61,11.07,12.34,33.41,0,110.3,13.17,11.87,328.9
"2016-03-13 01:45:00",1453101,11.67,7.591,8.03,1.893,17.71,104.6078,11.07,12.36,34.47,0,110.3,13.17,11.86,329.6
"2016-03-13 01:45:30",1453102,11.51,15.09,9.02,1.756,18.34,104.6081,11.07,12.34,34.27,0,110.3,13.17,11.86,337.1
"2016-03-13 01:46:00",1453103,7.803,18.17,10.31,3.835,17.37,104.6089,11.07,12.26,33.87,0,110.3,13.17,11.86,340.2
"2016-03-13 01:46:30",1453104,3.142,8.6,10.77,1.766,13.77,104.6119,11.08,12.08,33.9,0,110.3,13.22,11.87,330.6
"2016-03-13 01:47:00",1453105,4.63,2.71,9.67,1.743,13.69,104.614,11.08,12.06,33.81,0,110.3,13.22,11.88,324.7